Back to catalog

STARLINK-30834

AliveCommunicationsVLEO
NORAD 58151·PAYLOAD·🇺🇸 United States

Launched Oct 29, 2023 from Vandenberg Space Force Base

Loading…

Next Passes (next 24 hours)

TLE

FreshSource: CelesTrak SupGP

Epoch: Sep 14, 2026, 22:18 UTC

1 58151C 23166B   26257.92965278  .00032017  00000+0  94599-3 0  2576
2 58151  53.1591  59.7236 0000636  88.2094 224.1132 15.34373926    13

Track STARLINK-30834 in real time with AllMySat

Download on the App Store